• In Lithuania
  • List of Countries
  • For 7 days
  • Water Temperature
  • Satellite Maps
  • Weather Map
  • Weather Widgets
  • user-avatar
    Login

    Hourly Weather Disa

    Today, 18 January, Thursday

    Time Temperature Precipitation Wind Pressure Humidity
    00:00 +19°C° 0 mm 1 mps 749 mmHg 55%
    01:00 +19°C° 0 mm 1 mps 749 mmHg 55%
    02:00 +18°C° 0 mm 1 mps 749 mmHg 55%
    03:00 +18°C° 0 mm 1 mps 749 mmHg 55%
    04:00 +18°C° 0 mm 1 mps 749 mmHg 54%
    05:00 +16°C° 0 mm 1 mps 749 mmHg 55%
    06:00 +18°C° 0 mm 1 mps 749 mmHg 54%
    07:00 +19°C° 0 mm 1 mps 750 mmHg 53%
    08:00 +19°C° 0 mm 1 mps 750 mmHg 52%
    09:00 +22°C° 0 mm 1 mps 750 mmHg 45%
    10:00 +25°C° 0 mm 1 mps 751 mmHg 39%
    11:00 +28°C° 0 mm 1 mps 751 mmHg 32%
    12:00 +28°C° 0 mm 1 mps 750 mmHg 29%
    13:00 +29°C° 0 mm 1 mps 750 mmHg 25%
    14:00 +30°C° 0 mm 1 mps 749 mmHg 21%
    15:00 +29°C° 0 mm 1 mps 749 mmHg 24%
    16:00 +29°C° 0 mm 1 mps 749 mmHg 26%
    17:00 +28°C° 0 mm 1 mps 749 mmHg 29%
    18:00 +26°C° 0 mm 1 mps 749 mmHg 31%
    19:00 +24°C° 0 mm 1 mps 749 mmHg 34%
    20:00 +22°C° 0 mm 1 mps 750 mmHg 37%
    21:00 +21°C° 0 mm 1 mps 750 mmHg 38%
    22:00 +20°C° 0 mm 2 mps 750 mmHg 38%
    23:00 +20°C° 0 mm 2 mps 750 mmHg 39%

    Tomorrow, 19 January, Friday

    Time Temperature Precipitation Wind Pressure Humidity
    00:00 +19°C° 0 mm 2 mps 750 mmHg 39%
    01:00 +19°C° 0 mm 2 mps 750 mmHg 38%
    02:00 +19°C° 0 mm 2 mps 750 mmHg 38%
    03:00 +18°C° 0 mm 2 mps 750 mmHg 37%
    04:00 +18°C° 0 mm 2 mps 749 mmHg 36%
    05:00 +18°C° 0 mm 2 mps 749 mmHg 36%
    06:00 +18°C° 0 mm 2 mps 750 mmHg 36%
    07:00 +19°C° 0 mm 2 mps 750 mmHg 37%
    08:00 +19°C° 0 mm 2 mps 751 mmHg 38%
    09:00 +23°C° 0 mm 2 mps 751 mmHg 33%
    10:00 +25°C° 0 mm 2 mps 752 mmHg 28%
    11:00 +28°C° 0 mm 1 mps 752 mmHg 23%
    12:00 +29°C° 0 mm 2 mps 751 mmHg 22%
    13:00 +30°C° 0 mm 2 mps 751 mmHg 20%
    14:00 +31°C° 0 mm 2 mps 750 mmHg 18%
    15:00 +30°C° 0 mm 2 mps 750 mmHg 21%
    16:00 +29°C° 0 mm 2 mps 750 mmHg 24%
    17:00 +28°C° 0 mm 3 mps 750 mmHg 27%
    18:00 +26°C° 0 mm 3 mps 750 mmHg 28%
    19:00 +24°C° 0 mm 3 mps 751 mmHg 29%
    20:00 +21°C° 0 mm 3 mps 751 mmHg 30%
    21:00 +21°C° 0 mm 3 mps 751 mmHg 30%
    22:00 +20°C° 0 mm 3 mps 751 mmHg 31%
    23:00 +20°C° 0 mm 3 mps 751 mmHg 31%

    Day after tomorrow, 20 January, Saturday

    Time Temperature Precipitation Wind Pressure Humidity
    00:00 +20°C° 0 mm 3 mps 751 mmHg 31%
    01:00 +19°C° 0 mm 3 mps 751 mmHg 31%
    02:00 +19°C° 0 mm 3 mps 750 mmHg 31%
    03:00 +18°C° 0 mm 3 mps 750 mmHg 32%
    04:00 +18°C° 0 mm 4 mps 750 mmHg 33%
    05:00 +18°C° 0 mm 4 mps 750 mmHg 33%
    06:00 +18°C° 0 mm 3 mps 750 mmHg 35%
    07:00 +18°C° 0 mm 3 mps 750 mmHg 36%
    08:00 +18°C° 0 mm 3 mps 751 mmHg 38%
    09:00 +21°C° 0 mm 3 mps 751 mmHg 34%
    10:00 +25°C° 0 mm 3 mps 751 mmHg 30%
    11:00 +28°C° 0 mm 3 mps 751 mmHg 26%
    12:00 +29°C° 0 mm 2 mps 750 mmHg 24%
    13:00 +30°C° 0 mm 2 mps 749 mmHg 22%
    14:00 +31°C° 0 mm 1 mps 748 mmHg 20%
    15:00 +30°C° 0 mm 1 mps 748 mmHg 23%
    16:00 +29°C° 0 mm 2 mps 748 mmHg 25%
    17:00 +29°C° 0 mm 2 mps 748 mmHg 27%
    18:00 +27°C° 0 mm 2 mps 748 mmHg 29%
    19:00 +24°C° 0 mm 3 mps 749 mmHg 30%
    20:00 +21°C° 0 mm 3 mps 749 mmHg 31%
    21:00 +21°C° 0 mm 3 mps 749 mmHg 30%
    22:00 +20°C° 0 mm 3 mps 749 mmHg 29%
    23:00 +20°C° 0 mm 3 mps 749 mmHg 28%

    21 January, Sunday

    Time Temperature Precipitation Wind Pressure Humidity
    00:00 +19°C° 0 mm 3 mps 749 mmHg 27%
    01:00 +19°C° 0 mm 2 mps 748 mmHg 27%
    02:00 +19°C° 0 mm 2 mps 748 mmHg 26%
    03:00 +18°C° 0 mm 2 mps 748 mmHg 26%
    04:00 +18°C° 0 mm 2 mps 748 mmHg 27%
    05:00 +18°C° 0 mm 2 mps 748 mmHg 27%
    06:00 +18°C° 0 mm 2 mps 748 mmHg 30%
    07:00 +19°C° 0 mm 2 mps 749 mmHg 32%
    08:00 +19°C° 0 mm 2 mps 749 mmHg 35%
    09:00 +23°C° 0 mm 2 mps 750 mmHg 31%
    10:00 +25°C° 0 mm 2 mps 750 mmHg 28%
    11:00 +28°C° 0 mm 2 mps 750 mmHg 24%
    12:00 +29°C° 0 mm 2 mps 749 mmHg 23%
    13:00 +30°C° 0 mm 2 mps 748 mmHg 21%
    14:00 +30°C° 0 mm 2 mps 747 mmHg 19%
    15:00 +30°C° 0 mm 2 mps 747 mmHg 21%
    16:00 +29°C° 0 mm 2 mps 747 mmHg 23%
    17:00 +28°C° 0 mm 2 mps 746 mmHg 25%
    18:00 +26°C° 0 mm 2 mps 747 mmHg 25%
    19:00 +24°C° 0 mm 2 mps 747 mmHg 26%
    20:00 +21°C° 0 mm 2 mps 748 mmHg 26%
    21:00 +20°C° 0 mm 2 mps 748 mmHg 26%
    22:00 +20°C° 0 mm 2 mps 748 mmHg 25%
    23:00 +20°C° 0 mm 1 mps 748 mmHg 25%

    22 January, Monday

    Time Temperature Precipitation Wind Pressure Humidity
    00:00 +19°C° 0 mm 2 mps 747 mmHg 26%
    01:00 +19°C° 0 mm 2 mps 747 mmHg 26%
    02:00 +18°C° 0 mm 2 mps 746 mmHg 26%
    03:00 +18°C° 0 mm 2 mps 746 mmHg 27%
    04:00 +17°C° 0 mm 2 mps 746 mmHg 28%
    05:00 +17°C° 0 mm 2 mps 746 mmHg 29%
    06:00 +19°C° 0 mm 1 mps 747 mmHg 31%
    07:00 +19°C° 0 mm 1 mps 747 mmHg 33%
    08:00 +20°C° 0 mm 1 mps 748 mmHg 35%
    09:00 +22°C° 0 mm 1 mps 748 mmHg 31%
    10:00 +25°C° 0 mm 1 mps 748 mmHg 27%
    11:00 +27°C° 0 mm 1 mps 748 mmHg 23%
    12:00 +28°C° 0 mm 2 mps 747 mmHg 22%
    13:00 +29°C° 0 mm 3 mps 746 mmHg 21%
    14:00 +30°C° 0 mm 3 mps 745 mmHg 21%
    15:00 +29°C° 0 mm 3 mps 745 mmHg 24%
    16:00 +28°C° 0 mm 3 mps 745 mmHg 27%
    17:00 +27°C° 0 mm 3 mps 744 mmHg 31%
    18:00 +25°C° 0 mm 3 mps 745 mmHg 36%
    19:00 +22°C° 0 mm 3 mps 745 mmHg 41%
    20:00 +19°C° 0 mm 2 mps 746 mmHg 47%
    21:00 +19°C° 0 mm 2 mps 746 mmHg 50%
    22:00 +19°C° 0 mm 2 mps 746 mmHg 53%
    23:00 +18°C° 0 mm 2 mps 746 mmHg 56%

    23 January, Tuesday

    Time Temperature Precipitation Wind Pressure Humidity
    00:00 +18°C° 0 mm 2 mps 745 mmHg 62%
    01:00 +18°C° 0 mm 2 mps 745 mmHg 68%
    02:00 +17°C° 0 mm 2 mps 745 mmHg 74%
    03:00 +17°C° 0 mm 2 mps 745 mmHg 77%
    04:00 +17°C° 0 mm 2 mps 745 mmHg 81%
    05:00 +17°C° 0 mm 2 mps 744 mmHg 84%
    06:00 +17°C° 0 mm 2 mps 745 mmHg 81%
    07:00 +17°C° 0 mm 2 mps 746 mmHg 78%
    08:00 +18°C° 0 mm 2 mps 746 mmHg 75%
    09:00 +20°C° 0 mm 4 mps 746 mmHg 62%
    10:00 +22°C° 0 mm 5 mps 746 mmHg 49%
    11:00 +24°C° 0 mm 6 mps 747 mmHg 36%
    12:00 +24°C° 0 mm 6 mps 746 mmHg 32%
    13:00 +26°C° 0 mm 6 mps 745 mmHg 28%
    14:00 +27°C° 0 mm 7 mps 745 mmHg 24%
    15:00 +26°C° 0 mm 6 mps 745 mmHg 25%
    16:00 +25°C° 0 mm 5 mps 745 mmHg 26%
    17:00 +25°C° 0 mm 4 mps 745 mmHg 27%
    18:00 +22°C° 0 mm 3 mps 745 mmHg 30%
    19:00 +20°C° 0 mm 3 mps 746 mmHg 32%
    20:00 +18°C° 0 mm 2 mps 746 mmHg 34%
    21:00 +18°C° 0 mm 2 mps 747 mmHg 36%
    22:00 +17°C° 0 mm 2 mps 747 mmHg 38%
    23:00 +16°C° 0 mm 1 mps 747 mmHg 40%
    Show more